Voltar ao catálogo

STARLINK-37027

AtivoComunicaçõesVLEO
NORAD 68232·PAYLOAD·🇺🇸 United States

Lançado Mar 17, 2026 de Vandenberg Space Force Base

Loading…

Próximas Passagens (próximas 24 horas)

TLE

AtualizadoSource: CelesTrak SupGP

Época: Sep 15, 2026, 04:13 UTC

1 68232C 26054A   26258.17618056  .00024292  00000+0  71778-3 0  2584
2 68232  53.1572 126.6042 0001093  81.4611 318.8854 15.34376067    11

Acompanhe STARLINK-37027 em tempo real com AllMySat

Download on the App Store